Other Public Products
Issued by NWS Grand Forks, ND

Home | Current Version | Previous Version | Graphics & Text | Print | Product List | Glossary On
Versions: 1 2 3 4 5 6 7 8 9 10 11 12 13 14 15 16 17 18 19 20 21 22 23 24 25 26 27 28 29 30 31 32 33 34 35 36 37 38 39 40 41 42 43 44 45 46 47 48 49 50
000
FPUS83 KFGF 121910
OPUFGF
PRAIRIE TO PINES WEATHER ROUNDUP
NATIONAL WEATHER SERVICE EASTERN NORTH DAKOTA/GRAND FORKS ND
100 PM CST FRI FEB 12 2016

 **SATELLITE DATA USED TO AUGMENT SKY COVER AT AUTOMATED STATIONS**
 *****  WEATHER ACROSS EASTERN NORTH DAKOTA  *****

CITY           SKY/WX    TMP DP  RH WIND       PRES   REMARKS
GRAND FORKS    MOSUNNY   -1 -11  62 N18       30.67F WCI -22
GRAND FORKS AF FLURRIES  -2 -11  65 NW13      30.67S WCI -21
GRAND CITY NWS NOT AVBL
BUXTON         NOT AVBL
DEVILS LAKE    CLOUDY    -7 -13  75 N10       30.63F WCI -25
FARGO          MOSUNNY    2  -9  60 N17       30.65S WCI -18
WAHPETON ARPT  MOCLDY     3  -8  60 N17       30.63S WCI -17
$$

 *****  WEATHER ACROSS CENTRAL AND WESTERN NORTH DAKOTA  *****

CITY           SKY/WX    TMP DP  RH WIND       PRES   REMARKS
JAMESTOWN      SUNNY      0  -9  65 N12       30.60F WCI -17
BISMARCK       MOSUNNY   13   1  59 NE5       30.60S WCI   5
MINOT          SUNNY      9  -7  48 N5        30.60F WCI   1
MINOT AFB      SUNNY     13  -5  45 CALM      30.60F
GARRISON         N/A      6  -4  63 E7        30.56F WCI  -6
WILLISTON      CLOUDY    12  -2  53 E7        30.55F WCI   1
DICKINSON      CLOUDY    10  -3  55 E9        30.46F WCI  -3
HETTINGER      CLOUDY    14   7  73 E12       30.46F WCI   0
$$

 *****  OTHER OBSERVATIONS NORTHEAST NORTH DAKOTA  *****

CITY           SKY/WX    TMP DP  RH WIND       PRES   REMARKS
WALHALLA       FAIR      -2  -9  71 NW13      30.68S WCI -21
LANGDON        FAIR      -6 -13  71 NW14      30.59F WCI -26
CAVALIER       FAIR      -2 -11  65 NW13      30.68S WCI -21
GRAFTON        FAIR      -4 -11  71 NW16      30.70S WCI -25
CANDO          NOT AVBL
FORT TOTTEN      N/A     -2 -13  60 N7        29.95S WCI -15
ROLLA          FAIR      -2 N/A N/A NW13      30.58F WCI -21
RUGBY          FAIR       0  -9  65 W5        30.62S WCI -10
 ***** THE ABOVE OBSERVATIONS ARE NON NWS ARE NOT QUALITY
        CONTROLLED AND MAY MIS-REPORT RAIN FOR SNOW...
$$

 *****  OTHER OBSERVATIONS SOUTHEAST NORTH DAKOTA *****

CITY           SKY/WX    TMP DP  RH WIND       PRES   REMARKS
COOPERSTOWN    NOT AVBL
VALLEY CITY    FAIR      -2 -11  65 N10       30.64S WCI -19
OAKES          FAIR       1  -8  66 N15       30.62S WCI -18
GWINNER        FAIR       3  -6  66 N13       30.63S WCI -14
SHEYENNE NWR     N/A      1 -13  52 N9        29.95S WCI -14
BUFFALO        NOT AVBL
WYNDMERE       NOT AVBL
 ***** THE ABOVE OBSERVATIONS ARE NON NWS ARE NOT QUALITY
       CONTROLLED AND MAY MIS-REPORT RAIN FOR SNOW...
$$

  *****  WEATHER ACROSS NORTHERN MINNESOTA  *****

CITY           SKY/WX    TMP DP  RH WIND       PRES   REMARKS
FLAG ISLAND    SUNNY     -8 -18  59 NW17      30.52S WCI -31
WARROAD        SUNNY     -6 -17  59 NW15G21   30.55S WCI -27
ROSEAU         SUNNY     -6 -15  65 W13       30.57S WCI -25
HALLOCK        SUNNY     -6 -15  65 NW15      30.66R WCI -27
THF RVR FALLS  SUNNY     -4 -18  50 NW14      30.60R WCI -24
HALSTAD        NOT AVBL
FOSSTON        SUNNY      0 -15  50 NW12      30.57S WCI -18
BAUDETTE       SUNNY     -6 -19  53 NW15      30.50S WCI -27
WASKISH        SUNNY     -2 -15  55 W12       30.50F WCI -20
CROOKSTON      SUNNY     -4 -11  71 N16G24    30.66S WCI -25
$$
  *****  WEATHER ACROSS CENTRAL AND WEST MINNESOTA  *****

CITY           SKY/WX    TMP DP  RH WIND       PRES   REMARKS
BEMIDJI        SUNNY     -3 -15  56 NW15G22   30.49F WCI -23
PARK RAPIDS    SUNNY      2 -14  47 NW16      30.47S WCI -18
WADENA         SUNNY      1 -11  55 NW15        N/A  WCI -18
DETROIT LAKES  SUNNY      0  -9  65 N17       30.56R WCI -21
MOORHEAD       SUNNY      0  -9  65 N15       30.65R WCI -20
FERGUS FALLS   SUNNY      1  -9  60 N17G23      N/A  WCI -19
ELBOW LAKE     FAIR       1  -9  62 NW16      30.57R WCI -19
MORRIS MN      SUNNY      5  -2  72 N22       30.56R WCI -16
STAPLES        SUNNY      1 -15  46 NW15G21   30.49R WCI -18
WHEATON        MOSUNNY    5  -2  72 NW17      30.63R WCI -14
$$
  *****  WEATHER ELSEWHERE ACROSS MINNESOTA  *****

CITY           SKY/WX    TMP DP  RH WIND       PRES   REMARKS
DULUTH         MOSUNNY   -1 -17  46 N18G33    30.34R WCI -22
INTRNTL FALLS  SUNNY     -5 -20  48 W12       30.45S WCI -23
ELY            SUNNY     -6 -18  54 NW13G21   30.35R WCI -25
CLOQUET        SUNNY      0 -17  46 NW17G26   30.38R WCI -21
BRAINERD       SUNNY      3 -14  45 NW15G23   30.47R WCI -16
HIBBING        SUNNY     -4 -16  56 NW18      30.40R WCI -26
ALEXANDRIA     SUNNY      2 -10  57 NW15      30.51R WCI -17
SAINT CLOUD    SUNNY      6 -10  47 NW12      30.48R WCI  -9
MINNEAPOLIS    SUNNY     10  -8  44 NW22      30.44S WCI -10
$$

  *****  WEATHER ACROSS SOUTH DAKOTA  *****

CITY           SKY/WX    TMP DP  RH WIND       PRES   REMARKS
SIOUX FALLS    MOSUNNY   11   0  61 N20       30.54R WCI  -7
BROOKINGS      SUNNY      7  -3  64 N17G24    30.52S WCI -12
WATERTOWN      SUNNY      4  -6  63 N16       30.53S WCI -15
HURON          SUNNY     12   1  61 N16       30.60S WCI  -5
SISSETON         N/A      3  -6  66 N17       30.61S WCI -17
ABERDEEN       SUNNY      8  -3  61 N15       30.62F WCI  -9
MITCHELL       MOSUNNY   15   6  67 N16       30.59F WCI  -1
PIERRE         CLOUDY    22  12  65 NE9       30.53F WCI  12
MOBRIDGE       SUNNY     16   7  67 N8        30.54S WCI   5
RAPID CITY     FOG       27  26  96 SE8       30.40F VSB 1/4 WCI  19
$$

  *****  SOME WEATHER IN NEARBY STATES *****

CITY           SKY/WX    TMP DP  RH WIND       PRES   REMARKS
GLASGOW MT     CLOUDY    15   9  76 E18       30.40F WCI  -2
GREAT FALLS MT CLOUDY    44  36  73 SE3       30.13F
CHEYENNE WY    CLOUDY    48  26  42 S7        30.30F
SCOTTSBLUFF NE CLOUDY    36  29  75 E10       30.37S
OMAHA NE       MOSUNNY   25  13  60 N20       30.52R WCI  11
DES MOINES IA  MOSUNNY   20   7  57 NW20      30.46R WCI   4
DAVENPORT IA   SUNNY     23   6  48 NW26G35   30.29S WCI   6
CHICAGO IL     PTSUNNY   22   7  52 NW22      30.15S WCI   6
EAU CLAIRE WI  SUNNY      9  -9  44 N16       30.34R WCI  -8
LA CROSSE WI   SUNNY     14   0  53 NW25      30.32R WCI  -5
$$

  *****  SOME NATIONAL WEATHER *****

CITY           SKY/WX    TMP DP  RH WIND       PRES   REMARKS
LA GUARDIA NY  CLOUDY    26   1  34 SW6G17    30.10F WCI  19
RALEIGH NC     FLURRIES  28  19  69 CALM      30.10F
ATLANTA GA     MOSUNNY   60  33  36 W14       30.06F
NEW ORLEANS LA MOSUNNY   76  53  44 W17G24    30.22F
OKLAHOMA CITY  MOSUNNY   57  34  41 N13       30.36S
ALBUQUERQUE NM SUNNY     59  18  20 N7        30.38F
SALT LAKE CITY FOG       30  27  88 N5        30.43F VSB 1
LOS ANGELES CA PTSUNNY   74  44  34 VRB5      30.11F
BOISE ID       MOSUNNY   44  32  62 N3        30.32F
SEATTLE WA     CLOUDY    53  51  93 S9        30.10F
$$

*** WEATHER ACROSS MANITOBA...SASKATCHEWAN AND ONTARIO ***
                ***ONTARIO***

CITY           SKY/WX    TMP DP  RH WIND       PRES   REMARKS
GERALDTON      NOT AVBL
THUNDER BAY    MOSUNNY   -6 -20  49 NW14G26   30.30F WCI -26
SIOUX LOOKOUT  MOSUNNY  -11 -24  53 NW9G20    30.34S WCI -29
TORONTO        FLURRIES  23  12  63 W20G25    29.84F WCI   8
BIG TROUT LK   CLOUDY   -18 -29  57 NW18G25   30.27  HAZE    WCI -45
PICKLE LAKE    CRYSTALS -11 -26  49 NW10G20   30.22R WCI -30
DRYDEN         SUNNY     -8 -20  54 W16       30.37R WCI -30
KENORA         SUNNY     -9 -20  59 NW12G20   30.46R WCI -29
$$
                *** MANITOBA***

CITY           SKY/WX    TMP DP  RH WIND       PRES   REMARKS
BRANDON        MOSUNNY   -4 -15  59 NW8       30.64F WCI -19
DAUPHIN        SUNNY     -6 -17  59 SW5       30.70F WCI -17
ISLAND LAKE    SUNNY    -15 -22  70 W15       30.47S WCI -38
PILOT MOUND      N/A     -8 -15  71 NW9         N/A  WCI -25
THE PAS        MOSUNNY  -11 -22  58 NW7       30.69F WCI -26
THOMPSON       SUNNY    -11 -20  64 NW9       30.57S WCI -29
WINNIPEG       SUNNY     -8 -17  65 NW12      30.67S WCI -27
LYNN LAKE      SUNNY    -15 -22  70 W9        30.59S WCI -33
CHURCHILL      CRYSTALS -18 -26  69 NW18G29   30.45R BLWGSNOWWCI -45
GILLAM         SUNNY    -15 -24  64 W16G22    30.46R WCI -39
$$
                ***SASKATCHEWAN***

CITY           SKY/WX    TMP DP  RH WIND       PRES   REMARKS
ESTEVAN        PTSUNNY   14  -2  48 SE6       30.56F WCI   5
KINDERSLEY     CLOUDY     9   1  72 SE18      30.33F WCI -10
LLOYDMINSTER   CLOUDY     3  -2  78 SE17      30.35F WCI -17
PRINCE ALBERT  MOSUNNY   -9 -15  77 SE6       30.63F WCI -23
REGINA         PTSUNNY    9  -4  56 SE9       30.55F WCI  -5
YORKTON        SUNNY     -8 -13  77 CALM      30.62R   C1F1C2F2C3F3C4F4C5F5C6F6C7F7C8F8C9F9CaFaCbFbCcFcCdFdCe!


USA.gov is the U.S. government's official web portal to all federal, state and local government web resources and services.